FW1341 Weather Reports


time (UTC)temp
C
wind
direction
speed
KPH
gust
KPH
rain 1hr
cm
rain 24hr
cm
rain mn
cm
humidity
%
barometer
mb
20260504150647 20 279 3.2 11.3 0.00 0.00 0.00 40 1010.9
20260504150148 20 227 3.2 9.7 0.00 0.00 0.00 42 1011.0
20260504141146 17 187 1.6 9.7 0.00 0.00 0.00 45 1011.2
20260504140644 17 278 1.6 9.7 0.00 0.00 0.00 46 1011.3
20260504140143 17 198 3.2 11.3 0.00 0.00 0.00 46 1011.4
20260504130635 15 215 3.2 11.3 0.00 0.00 0.00 54 1011.8
20260504130135 15 174 3.2 14.5 0.00 0.00 0.00 54 1011.8
20260504120128 13 184 6.4 20.9 0.00 0.00 0.00 57 1012.0
20260504110624 11 203 3.2 12.9 0.00 0.00 0.00 60 1012.2
20260504110124 11 298 3.2 9.7 0.00 0.00 0.00 61 1012.3
20260504100116 12 195 0.0 6.4 0.00 0.00 0.00 60 1012.1
20260504090110 12 198 1.6 16.1 0.00 0.00 0.00 57 1012.3
20260504081557 12 210 3.2 9.7 0.00 0.00 0.00 55 1012.6
20260504081055 12 233 3.2 9.7 0.00 0.00 0.00 55 1012.5
20260504080555 12 248 3.2 11.3 0.00 0.00 0.00 55 1012.5
20260504050504 12 236 0.0 3.2 0.00 0.00 0.00 61 1012.7
20260504050001 12 203 0.0 3.2 0.00 0.00 0.00 59 1012.8
20260504045502 12 225 0.0 3.2 0.00 0.00 0.00 59 1012.7
20260504044959 12 215 0.0 0.0 0.00 0.00 0.00 59 1012.8
20260504044500 12 214 0.0 0.0 0.00 0.00 0.00 59 1012.7
20260504044000 12 212 0.0 0.0 0.00 0.00 0.00 58 1012.8
20260504042956 12 210 0.0 4.8 0.00 0.00 0.00 57 1012.7
20260504042457 12 238 0.0 1.6 0.00 0.00 0.00 56 1012.8
20260504041454 12 201 1.6 8.0 0.00 0.00 0.00 55 1012.7
20260504040954 12 273 1.6 6.4 0.00 0.00 0.00 54 1012.7
20260504040455 12 210 1.6 9.7 0.00 0.00 0.00 54 1012.7
20260504035954 12 273 1.6 9.7 0.00 0.00 0.00 54 1012.8
20260504035447 12 229 1.6 8.0 0.00 0.00 0.00 55 1012.8
20260504034946 12 207 0.0 3.2 0.00 0.00 0.00 56 1012.7
20260504034445 12 235 1.6 11.3 0.00 0.00 0.00 56 1012.8
20260504032941 13 221 1.6 6.4 0.00 0.00 0.00 55 1012.5
20260504032438 13 207 1.6 4.8 0.00 0.00 0.00 55 1012.5
20260504031438 13 204 1.6 4.8 0.00 0.00 0.00 55 1012.5
20260504030938 13 287 0.0 6.4 0.00 0.00 0.00 53 1012.5
20260504030438 13 217 1.6 6.4 0.00 0.00 0.00 52 1012.4
20260504025937 13 208 1.6 6.4 0.00 0.00 0.00 51 1012.4
20260504025436 13 212 1.6 6.4 0.00 0.00 0.00 49 1012.3
20260504024928 13 208 1.6 9.7 0.00 0.00 0.00 48 1012.3
20260504024426 13 228 1.6 9.7 0.00 0.00 0.00 47 1012.2
20260504023926 13 201 3.2 9.7 0.00 0.00 0.00 46 1012.2
20260504023428 13 238 1.6 9.7 0.00 0.00 0.00 44 1012.2
20260504022927 13 188 0.0 4.8 0.00 0.00 0.00 43 1012.2
20260504022428 13 226 0.0 3.2 0.00 0.00 0.00 44 1012.2
20260504021418 13 211 0.0 0.0 0.00 0.00 0.00 53 1012.2
20260504020919 13 211 0.0 0.0 0.00 0.00 0.00 47 1012.1
20260504020416 13 211 0.0 0.0 0.00 0.00 0.00 45 1012.0
20260504015406 13 231 0.0 0.0 0.00 0.00 0.00 51 1012.1
20260504014905 13 232 0.0 0.0 0.00 0.00 0.00 46 1012.0
20260504013901 14 232 0.0 0.0 0.00 0.00 0.00 40 1011.9
20260504013401 14 232 0.0 0.0 0.00 0.00 0.00 41 1011.9
20260504012858 14 232 0.0 0.0 0.00 0.00 0.00 38 1011.9
20260504012358 14 232 0.0 0.0 0.00 0.00 0.00 37 1011.9
20260504011859 14 263 0.0 0.0 0.00 0.00 0.00 38 1011.8
20260504011357 14 231 0.0 0.0 0.00 0.00 0.00 40 1011.8
20260504010355 15 232 0.0 1.6 0.00 0.00 0.00 35 1011.8
20260504005848 15 232 0.0 1.6 0.00 0.00 0.00 35 1011.8
20260504004845 15 194 0.0 4.8 0.00 0.00 0.00 33 1011.7
20260504004343 16 303 0.0 4.8 0.00 0.00 0.00 36 1011.6
20260504003341 16 302 0.0 6.4 0.00 0.00 0.00 32 1011.5
20260504002839 16 338 0.0 6.4 0.00 0.00 0.00 32 1011.5
20260504002339 16 305 0.0 6.4 0.00 0.00 0.00 32 1011.4
20260504001839 16 290 0.0 4.8 0.00 0.00 0.00 33 1011.4
20260504001337 16 332 0.0 4.8 0.00 0.00 0.00 31 1011.4
20260504000838 16 320 0.0 3.2 0.00 0.00 0.00 31 1011.4
20260503234832 16 250 0.0 8.0 0.00 0.00 0.00 30 1011.1
20260503234332 17 288 1.6 8.0 0.00 0.00 0.00 29 1011.1
20260503233327 17 296 3.2 12.9 0.00 0.00 0.00 28 1011.1
20260503232827 17 280 1.6 12.9 0.00 0.00 0.00 28 1011.0
20260503232327 17 208 1.6 9.7 0.00 0.00 0.00 28 1010.9
20260503230824 17 23 4.8 12.9 0.00 0.00 0.00 27 1010.9
20260503225823 17 339 3.2 14.5 0.00 0.00 0.00 27 1010.9
20260503225322 18 327 3.2 14.5 0.00 0.00 0.00 27 1010.9
20260503224825 17 280 4.8 16.1 0.00 0.00 0.00 27 1011.0
20260503224324 17 268 4.8 16.1 0.00 0.00 0.00 27 1011.1
20260503223824 18 354 3.2 9.7 0.00 0.00 0.00 27 1011.0
20260503223324 18 8 3.2 12.9 0.00 0.00 0.00 27 1011.0
20260503222320 18 249 3.2 12.9 0.00 0.00 0.00 27 1011.0
20260503221818 18 295 4.8 12.9 0.00 0.00 0.00 27 1011.1
20260503221318 18 255 3.2 12.9 0.00 0.00 0.00 26 1011.1
20260503220817 18 340 3.2 12.9 0.00 0.00 0.00 27 1011.1
20260503220317 17 341 4.8 17.7 0.00 0.00 0.00 27 1011.1
20260503215814 17 304 6.4 19.3 0.00 0.00 0.00 27 1011.1
20260503215312 17 37 4.8 19.3 0.00 0.00 0.00 27 1011.2
20260503214812 17 342 8.0 20.9 0.00 0.00 0.00 28 1011.3
20260503214313 17 330 9.7 22.5 0.00 0.00 0.00 27 1011.3
20260503213811 17 15 6.4 22.5 0.00 0.00 0.00 27 1011.3
20260503212806 17 263 6.4 24.1 0.00 0.00 0.00 27 1011.1
20260503212305 17 15 6.4 22.5 0.00 0.00 0.00 27 1011.2
20260503211803 17 288 6.4 22.5 0.00 0.00 0.00 28 1011.1
20260503211306 17 315 4.8 17.7 0.00 0.00 0.00 29 1011.1
20260503210805 17 339 6.4 17.7 0.00 0.00 0.00 29 1011.1
20260503210306 17 307 6.4 17.7 0.00 0.00 0.00 28 1011.3
20260503205800 17 327 4.8 16.1 0.00 0.00 0.00 28 1011.3
20260503205258 17 345 4.8 16.1 0.00 0.00 0.00 28 1011.3
20260503203800 17 20 6.4 22.5 0.00 0.00 0.00 28 1011.4
20260503203300 17 33 6.4 22.5 0.00 0.00 0.00 29 1011.4
20260503202753 16 334 8.0 22.5 0.00 0.00 0.00 30 1011.5
20260503202253 17 307 6.4 16.1 0.00 0.00 0.00 29 1011.6
20260503201755 16 15 9.7 22.5 0.00 0.00 0.00 29 1011.6
20260503201254 16 35 9.7 22.5 0.00 0.00 0.00 29 1011.8
20260503200753 17 69 6.4 20.9 0.00 0.00 0.00 28 1011.9
20260503200252 16 302 6.4 20.9 0.00 0.00 0.00 29 1011.8
20260503195748 16 328 6.4 20.9 0.00 0.00 0.00 30 1011.9
20260503195248 16 25 6.4 16.1 0.00 0.00 0.00 30 1011.8
20260503194748 16 348 8.0 25.7 0.00 0.00 0.00 30 1012.0
20260503194247 16 41 8.0 25.7 0.00 0.00 0.00 31 1012.1
20260503193745 16 316 6.4 20.9 0.00 0.00 0.00 31 1012.2
20260503193245 16 274 8.0 17.7 0.00 0.00 0.00 32 1012.2
20260503192740 16 246 9.7 25.7 0.00 0.00 0.00 32 1012.3
20260503191740 16 4 9.7 27.4 0.00 0.00 0.00 32 1012.4
20260503191240 16 114 9.7 25.7 0.00 0.00 0.00 32 1012.6
20260503190241 16 312 6.4 27.4 0.00 0.00 0.00 32 1012.7
20260503185733 15 270 8.0 17.7 0.00 0.00 0.00 33 1012.6
20260503185232 15 275 9.7 25.7 0.00 0.00 0.00 33 1012.7
20260503184733 16 127 9.7 25.7 0.00 0.00 0.00 33 1012.8
20260503184233 16 248 8.0 24.1 0.00 0.00 0.00 32 1013.0
20260503183232 15 239 6.4 20.9 0.00 0.00 0.00 33 1012.9
20260503182728 15 183 8.0 27.4 0.00 0.00 0.00 33 1013.0
20260503182227 15 160 9.7 27.4 0.00 0.00 0.00 33 1013.1
20260503181728 15 320 8.0 24.1 0.00 0.00 0.00 33 1013.1
20260503180730 15 10 8.0 22.5 0.00 0.00 0.00 33 1013.2
20260503180229 15 302 8.0 20.9 0.00 0.00 0.00 33 1013.2
20260503175730 15 276 8.0 19.3 0.00 0.00 0.00 33 1013.3
20260503175226 15 217 8.0 24.1 0.00 0.00 0.00 34 1013.2
20260503174727 15 36 8.0 24.1 0.00 0.00 0.00 33 1013.3
20260503174227 15 307 6.4 19.3 0.00 0.00 0.00 33 1013.5
20260503173728 15 15 8.0 17.7 0.00 0.00 0.00 34 1013.4
20260503173227 14 325 8.0 27.4 0.00 0.00 0.00 34 1013.4
20260503172728 14 309 8.0 27.4 0.00 0.00 0.00 33 1013.6
20260503172227 14 22 6.4 24.1 0.00 0.00 0.00 33 1013.6
20260503171724 14 97 8.0 24.1 0.00 0.00 0.00 34 1013.6
20260503171227 14 174 9.7 27.4 0.00 0.00 0.00 33 1013.6
20260503170725 14 68 6.4 27.4 0.00 0.00 0.00 33 1013.6
20260503170225 14 283 4.8 22.5 0.00 0.00 0.00 35 1013.5
20260503160218 13 18 8.0 22.5 0.00 0.00 0.00 35 1014.1